User: anonymous   Login
Location: Unspecified
(0.0000°N, 0.0000°E)
Time: 18:56:32
(UTC+00:00)
Language:

CUTE-I - Orbit

View from above orbital plane
View from above orbital plane
View from above satellite
View from above satellite

Ground track
Ground track

The orbit data is extracted from the following two-line orbital elements,

1 27844U 03031E   19342.86356746  .00000050  00000-0  42459-4 0  9999
2 27844  98.6837 348.4866 0008888 247.8914 112.1320 14.22209679852900
Epoch (UTC): 08 December 2019 20:43:32
Eccentricity: 0.0008888
inclination: 98.6837°
perigee height: 811 km
apogee height: 824 km
right ascension of ascending node: 348.4866°
argument of perigee: 247.8914°
revolutions per day: 14.22209679
mean anomaly at epoch: 112.1320°
orbit number at epoch: 85290

The dashed part of the orbit path shows where the satellite is in the earth's shadow,  

DLR